Time,TemperatureF,DewpointF,PressureIn,WindDirection,WindDirectionDegrees,WindSpeedMPH,WindSpeedGustMPH,Humidity,HourlyPrecipIn,Conditions,Clouds,dailyrainin,SoftwareType,DateUTC
2013-05-11 00:12:00,75.7,70.0,30.06,NW,321,4.0,9.0,83,0.00,,,0.00,weatherlink.com 1.10,2013-05-11 04:12:00,
2013-05-11 00:27:00,74.6,70.0,30.06,NNW,327,2.0,5.0,85,0.00,,,0.00,weatherlink.com 1.10,2013-05-11 04:27:00,
2013-05-11 00:42:00,73.3,70.0,30.06,SW,215,2.0,4.0,88,0.00,,,0.00,weatherlink.com 1.10,2013-05-11 04:42:00,
2013-05-11 00:57:00,74.7,71.0,30.06,WNW,284,3.0,5.0,87,0.00,,,0.00,weatherlink.com 1.10,2013-05-11 04:57:00,
2013-05-11 01:12:00,73.3,70.0,30.05,SW,217,3.0,4.0,89,0.00,,,0.00,weatherlink.com 1.10,2013-05-11 05:12:00,
2013-05-11 01:27:00,72.9,70.0,30.05,SW,232,3.0,6.0,90,0.00,,,0.00,weatherlink.com 1.10,2013-05-11 05:27:00,
2013-05-11 01:42:00,73.5,71.0,30.04,SW,228,2.0,5.0,91,0.00,,,0.00,weatherlink.com 1.10,2013-05-11 05:42:00,
2013-05-11 01:57:00,73.5,71.0,30.04,SW,229,3.0,5.0,92,0.00,,,0.00,weatherlink.com 1.10,2013-05-11 05:57:00,
2013-05-11 02:12:00,72.9,71.0,30.04,SW,236,2.0,5.0,93,0.00,,,0.00,weatherlink.com 1.10,2013-05-11 06:12:00,
2013-05-11 02:27:00,72.1,70.0,30.04,SW,220,4.0,5.0,93,0.00,,,0.00,weatherlink.com 1.10,2013-05-11 06:27:00,
2013-05-11 02:42:00,72.5,71.0,30.04,SW,222,3.0,5.0,94,0.00,,,0.00,weatherlink.com 1.10,2013-05-11 06:42:00,
2013-05-11 02:57:00,71.1,70.0,30.04,SW,218,3.0,5.0,95,0.00,,,0.00,weatherlink.com 1.10,2013-05-11 06:57:00,
2013-05-11 03:12:00,71.7,71.0,30.04,SW,218,4.0,6.0,97,0.00,,,0.00,weatherlink.com 1.10,2013-05-11 07:12:00,
2013-05-11 03:27:00,71.7,71.0,30.03,SW,229,4.0,6.0,96,0.00,,,0.00,weatherlink.com 1.10,2013-05-11 07:27:00,
2013-05-11 03:42:00,71.6,70.0,30.03,SSW,210,4.0,6.0,96,0.00,,,0.00,weatherlink.com 1.10,2013-05-11 07:42:00,
2013-05-11 03:57:00,70.5,69.0,30.02,SSW,199,3.0,5.0,96,0.00,,,0.00,weatherlink.com 1.10,2013-05-11 07:57:00,
2013-05-11 04:12:00,70.3,69.0,30.01,SSW,203,4.0,5.0,97,0.00,,,0.00,weatherlink.com 1.10,2013-05-11 08:12:00,
2013-05-11 04:27:00,70.2,69.0,30.00,SSW,202,5.0,5.0,97,0.00,,,0.00,weatherlink.com 1.10,2013-05-11 08:27:00,
2013-05-11 04:42:00,70.0,69.0,30.00,SSW,204,3.0,5.0,97,0.00,,,0.00,weatherlink.com 1.10,2013-05-11 08:42:00,
2013-05-11 04:57:00,69.9,69.0,30.01,SW,215,5.0,7.0,97,0.00,,,0.00,weatherlink.com 1.10,2013-05-11 08:57:00,
2013-05-11 05:13:00,69.7,69.0,30.01,SW,217,4.0,8.0,96,0.00,,,0.00,weatherlink.com 1.10,2013-05-11 09:13:00,
2013-05-11 05:28:00,70.1,69.0,30.01,SW,229,6.0,8.0,97,0.00,,,0.00,weatherlink.com 1.10,2013-05-11 09:28:00,
2013-05-11 05:43:00,70.3,69.0,30.02,SW,232,5.0,7.0,97,0.00,,,0.00,weatherlink.com 1.10,2013-05-11 09:43:00,
2013-05-11 05:58:00,70.4,70.0,30.02,SW,236,5.0,6.0,97,0.00,,,0.00,weatherlink.com 1.10,2013-05-11 09:58:00,
2013-05-11 06:13:00,70.7,70.0,30.03,SW,230,5.0,6.0,96,0.00,,,0.00,weatherlink.com 1.10,2013-05-11 10:13:00,
2013-05-11 06:28:00,70.5,70.0,30.03,SW,218,4.0,6.0,97,0.00,,,0.00,weatherlink.com 1.10,2013-05-11 10:28:00,
2013-05-11 06:43:00,70.4,70.0,30.03,SSW,213,2.0,4.0,97,0.00,,,0.00,weatherlink.com 1.10,2013-05-11 10:43:00,
2013-05-11 06:58:00,70.7,70.0,30.04,SSW,213,3.0,4.0,97,0.00,,,0.00,weatherlink.com 1.10,2013-05-11 10:58:00,
2013-05-11 07:13:00,71.1,70.0,30.03,SSW,209,4.0,6.0,97,0.00,,,0.00,weatherlink.com 1.10,2013-05-11 11:13:00,
2013-05-11 07:28:00,71.3,70.0,30.04,SW,214,4.0,6.0,97,0.00,,,0.00,weatherlink.com 1.10,2013-05-11 11:28:00,
2013-05-11 07:43:00,71.9,71.0,30.04,SW,219,3.0,6.0,97,0.00,,,0.00,weatherlink.com 1.10,2013-05-11 11:43:00,
2013-05-11 07:58:00,71.9,71.0,30.04,SSW,211,4.0,6.0,96,0.00,,,0.00,weatherlink.com 1.10,2013-05-11 11:58:00,
2013-05-11 08:13:00,72.8,72.0,30.04,SSW,203,4.0,8.0,97,0.00,,,0.00,weatherlink.com 1.10,2013-05-11 12:13:00,
2013-05-11 08:28:00,74.1,73.0,30.04,SSW,198,6.0,8.0,95,0.00,,,0.00,weatherlink.com 1.10,2013-05-11 12:28:00,
2013-05-11 08:43:00,75.2,73.0,30.04,SE,142,5.0,6.0,94,0.00,,,0.00,weatherlink.com 1.10,2013-05-11 12:43:00,
2013-05-11 08:58:00,76.1,73.0,30.03,South,169,4.0,9.0,91,0.00,,,0.00,weatherlink.com 1.10,2013-05-11 12:58:00,
2013-05-11 09:13:00,77.6,74.0,30.04,South,173,6.0,8.0,88,0.00,,,0.00,weatherlink.com 1.10,2013-05-11 13:13:00,
2013-05-11 09:28:00,78.6,74.0,30.05,SW,226,9.0,11.0,85,0.00,,,0.00,weatherlink.com 1.10,2013-05-11 13:28:00,
2013-05-11 09:43:00,78.2,74.0,30.05,SW,220,10.0,12.0,86,0.00,,,0.00,weatherlink.com 1.10,2013-05-11 13:43:00,
2013-05-11 09:58:00,80.2,74.0,30.05,SSW,202,7.0,12.0,82,0.00,,,0.00,weatherlink.com 1.10,2013-05-11 13:58:00,
2013-05-11 10:13:00,80.2,74.0,30.05,SSW,202,10.0,15.0,82,0.00,,,0.00,weatherlink.com 1.10,2013-05-11 14:13:00,
2013-05-11 10:28:00,80.9,74.0,30.05,SW,226,11.0,12.0,80,0.00,,,0.00,weatherlink.com 1.10,2013-05-11 14:28:00,
2013-05-11 10:43:00,81.2,73.0,30.05,SW,218,9.0,17.0,76,0.00,,,0.00,weatherlink.com 1.10,2013-05-11 14:43:00,
2013-05-11 10:58:00,81.8,74.0,30.04,SSW,195,8.0,14.0,76,0.00,,,0.00,weatherlink.com 1.10,2013-05-11 14:58:00,
2013-05-11 11:13:00,83.4,74.0,30.04,SSW,199,8.0,13.0,72,0.00,,,0.00,weatherlink.com 1.10,2013-05-11 15:13:00,
2013-05-11 11:28:00,84.6,73.0,30.04,SW,217,12.0,16.0,68,0.00,,,0.00,weatherlink.com 1.10,2013-05-11 15:28:00,
2013-05-11 11:43:00,84.3,74.0,30.03,SSW,208,11.0,16.0,71,0.00,,,0.00,weatherlink.com 1.10,2013-05-11 15:43:00,
2013-05-11 11:58:00,84.2,73.0,30.03,SSW,211,7.0,17.0,69,0.00,,,0.00,weatherlink.com 1.10,2013-05-11 15:58:00,
2013-05-11 12:13:00,84.6,72.0,30.03,SSW,201,7.0,13.0,66,0.00,,,0.00,weatherlink.com 1.10,2013-05-11 16:13:00,
2013-05-11 12:28:00,85.0,72.0,30.02,WSW,237,7.0,15.0,65,0.00,,,0.00,weatherlink.com 1.10,2013-05-11 16:28:00,
2013-05-11 12:43:00,86.5,73.0,30.03,SSW,203,7.0,16.0,64,0.00,,,0.00,weatherlink.com 1.10,2013-05-11 16:43:00,
2013-05-11 12:58:00,86.5,72.0,30.01,SW,214,8.0,15.0,63,0.00,,,0.00,weatherlink.com 1.10,2013-05-11 16:58:00,
2013-05-11 13:13:00,85.1,71.0,30.02,SW,226,6.0,14.0,63,0.00,,,0.00,weatherlink.com 1.10,2013-05-11 17:13:00,
2013-05-11 13:28:00,75.2,68.0,30.03,North,355,10.0,18.0,78,0.04,,,0.04,weatherlink.com 1.10,2013-05-11 17:28:00,
2013-05-11 13:43:00,76.4,71.0,30.02,NNW,331,4.0,10.0,83,0.07,,,0.07,weatherlink.com 1.10,2013-05-11 17:43:00,
2013-05-11 13:58:00,80.8,72.0,30.02,WSW,248,7.0,11.0,75,0.07,,,0.07,weatherlink.com 1.10,2013-05-11 17:58:00,
2013-05-11 14:13:00,82.5,74.0,30.01,WSW,246,1.0,8.0,76,0.07,,,0.07,weatherlink.com 1.10,2013-05-11 18:13:00,
2013-05-11 14:28:00,83.9,73.0,30.01,WSW,245,4.0,11.0,69,0.03,,,0.07,weatherlink.com 1.10,2013-05-11 18:28:00,
2013-05-11 14:43:00,85.4,74.0,30.00,West,265,8.0,14.0,68,0.00,,,0.07,weatherlink.com 1.10,2013-05-11 18:43:00,
2013-05-11 14:58:00,86.1,73.0,29.99,WNW,297,6.0,11.0,66,0.00,,,0.07,weatherlink.com 1.10,2013-05-11 18:58:00,
2013-05-11 15:13:00,84.6,75.0,29.99,North,5,6.0,11.0,73,0.00,,,0.07,weatherlink.com 1.10,2013-05-11 19:13:00,
2013-05-11 15:28:00,83.3,75.0,29.99,NNW,345,6.0,8.0,76,0.00,,,0.07,weatherlink.com 1.10,2013-05-11 19:28:00,
2013-05-11 15:43:00,78.3,73.0,29.98,North,5,10.0,15.0,83,0.00,,,0.07,weatherlink.com 1.10,2013-05-11 19:43:00,
2013-05-11 15:58:00,79.8,75.0,29.98,NNE,27,7.0,9.0,85,0.00,,,0.07,weatherlink.com 1.10,2013-05-11 19:58:00,
2013-05-11 16:13:00,84.8,75.0,29.97,NNW,327,3.0,11.0,72,0.00,,,0.07,weatherlink.com 1.10,2013-05-11 20:13:00,
2013-05-11 16:28:00,85.9,72.0,29.98,NW,307,6.0,13.0,64,0.00,,,0.07,weatherlink.com 1.10,2013-05-11 20:28:00,
2013-05-11 16:43:00,83.2,74.0,29.98,NNW,334,5.0,14.0,73,0.00,,,0.07,weatherlink.com 1.10,2013-05-11 20:43:00,
2013-05-11 16:58:00,85.3,73.0,29.98,WNW,300,9.0,18.0,67,0.00,,,0.07,weatherlink.com 1.10,2013-05-11 20:58:00,
2013-05-11 17:13:00,85.4,73.0,29.98,WNW,299,12.0,18.0,66,0.00,,,0.07,weatherlink.com 1.10,2013-05-11 21:13:00,
2013-05-11 17:28:00,85.0,73.0,29.98,NNW,333,6.0,17.0,67,0.00,,,0.07,weatherlink.com 1.10,2013-05-11 21:28:00,
2013-05-11 17:43:00,84.4,73.0,29.98,West,275,11.0,16.0,68,0.00,,,0.07,weatherlink.com 1.10,2013-05-11 21:43:00,
2013-05-11 17:58:00,83.8,71.0,29.99,NW,313,11.0,15.0,66,0.00,,,0.07,weatherlink.com 1.10,2013-05-11 21:58:00,
2013-05-11 18:13:00,82.9,71.0,29.98,WNW,292,8.0,16.0,68,0.00,,,0.07,weatherlink.com 1.10,2013-05-11 22:13:00,
2013-05-11 18:28:00,82.3,72.0,29.99,NW,325,7.0,15.0,70,0.00,,,0.07,weatherlink.com 1.10,2013-05-11 22:28:00,
2013-05-11 18:43:00,82.1,72.0,30.00,NW,309,7.0,15.0,72,0.00,,,0.07,weatherlink.com 1.10,2013-05-11 22:43:00,
2013-05-11 18:58:00,81.6,73.0,29.99,WNW,294,7.0,13.0,75,0.00,,,0.07,weatherlink.com 1.10,2013-05-11 22:58:00,
2013-05-11 19:13:00,80.9,73.0,29.99,NW,318,5.0,10.0,78,0.00,,,0.07,weatherlink.com 1.10,2013-05-11 23:13:00,
2013-05-11 19:28:00,80.3,74.0,30.00,NW,317,8.0,10.0,81,0.00,,,0.07,weatherlink.com 1.10,2013-05-11 23:28:00,
2013-05-11 19:43:00,79.7,75.0,30.00,NW,306,6.0,12.0,84,0.00,,,0.07,weatherlink.com 1.10,2013-05-11 23:43:00,
2013-05-11 19:58:00,79.1,75.0,30.00,NW,317,4.0,10.0,86,0.00,,,0.07,weatherlink.com 1.10,2013-05-11 23:58:00,
2013-05-11 20:13:00,78.7,75.0,30.01,WNW,292,8.0,10.0,87,0.00,,,0.07,weatherlink.com 1.10,2013-05-12 00:13:00,
2013-05-11 20:28:00,79.0,75.0,30.02,NW,315,7.0,8.0,87,0.00,,,0.07,weatherlink.com 1.10,2013-05-12 00:28:00,
2013-05-11 20:43:00,77.5,72.0,30.02,NNE,15,9.0,12.0,83,0.00,,,0.07,weatherlink.com 1.10,2013-05-12 00:43:00,
2013-05-11 20:58:00,76.1,70.0,30.02,North,360,10.0,13.0,82,0.00,,,0.07,weatherlink.com 1.10,2013-05-12 00:58:00,
2013-05-11 21:13:00,74.3,69.0,30.02,North,355,5.0,10.0,83,0.00,,,0.07,weatherlink.com 1.10,2013-05-12 01:13:00,
2013-05-11 21:28:00,73.2,67.0,30.02,North,351,3.0,6.0,82,0.00,,,0.07,weatherlink.com 1.10,2013-05-12 01:28:00,
2013-05-11 21:43:00,72.5,67.0,30.02,North,351,2.0,3.0,84,0.00,,,0.07,weatherlink.com 1.10,2013-05-12 01:43:00,
2013-05-11 21:58:00,72.3,68.0,30.03,North,351,3.0,3.0,85,0.00,,,0.07,weatherlink.com 1.10,2013-05-12 01:58:00,
2013-05-11 22:14:00,72.2,68.0,30.02,North,351,0.0,2.0,86,0.00,,,0.07,weatherlink.com 1.10,2013-05-12 02:14:00,
2013-05-11 22:29:00,73.0,69.0,30.03,ENE,68,2.0,4.0,86,0.00,,,0.07,weatherlink.com 1.10,2013-05-12 02:29:00,
2013-05-11 22:44:00,72.7,68.0,30.03,ENE,68,1.0,3.0,86,0.00,,,0.07,weatherlink.com 1.10,2013-05-12 02:44:00,
2013-05-11 22:59:00,72.1,68.0,30.03,ENE,68,0.0,2.0,87,0.00,,,0.07,weatherlink.com 1.10,2013-05-12 02:59:00,
2013-05-11 23:14:00,72.3,68.0,30.03,ENE,68,2.0,2.0,87,0.00,,,0.07,weatherlink.com 1.10,2013-05-12 03:14:00,
2013-05-11 23:29:00,72.0,68.0,30.03,ENE,68,1.0,3.0,87,0.00,,,0.07,weatherlink.com 1.10,2013-05-12 03:29:00,
2013-05-11 23:44:00,72.9,68.0,30.04,ENE,68,0.0,1.0,84,0.00,,,0.07,weatherlink.com 1.10,2013-05-12 03:44:00,
2013-05-11 23:59:00,73.4,68.0,30.03,ENE,68,0.0,0.0,84,0.00,,,0.07,weatherlink.com 1.10,2013-05-12 03:59:00,